QPF
0.02 0.01 0.01 0.02 0.01 0.01 0.00 0.00 0.00 0.00 0.00 0.00 0.00 0.00 0.00 0.00 0.00 0.00 0.00 0.00 0.00 0.00 0.00 0.00 0.01 0.01 0.02 0.02 0.02 0.02 0.01 0.01 0.01 0.01 0.02 0.02 0.01 0.01 0.01 0.01 0.01 0.01 0.01 0.02 0.02 0.01 0.01 0.01 0.00
0.01 0.01 0.02 0.02 0.01 0.00 0.00 0.00 0.00 0.00 0.00 0.00 0.00 0.00 0.00 0.00 0.00 0.00 0.00 0.00 0.00 0.00 0.00 0.00 0.01 0.01 0.02 0.02 0.02 0.02 0.02 0.01 0.01 0.02 0.02 0.02 0.01 0.01 0.01 0.01 0.01 0.01 0.01 0.02 0.02 0.01 0.01 0.00 0.00
0.01 0.02 0.03 0.02 0.01 0.00 0.00 0.00 0.00 0.00 0.00 0.00 0.00 0.00 0.00 0.00 0.00 0.00 0.00 0.00 0.00 0.00 0.00 0.00 0.01 0.01 0.02 0.03 0.03 0.03 0.03 0.02 0.02 0.02 0.02 0.02 0.02 0.02 0.01 0.01 0.02 0.02 0.01 0.01 0.01 0.01 0.00 0.00 0.00
0.02 0.04 0.04 0.02 0.00 0.00 0.00 0.00 0.00 0.00 0.00 0.00 0.00 0.00 0.00 0.00 0.00 0.00 0.00 0.00 0.00 0.00 0.00 0.01 0.01 0.02 0.02 0.03 0.04 0.04 0.04 0.03 0.03 0.03 0.02 0.02 0.02 0.03 0.02 0.02 0.01 0.01 0.01 0.01 0.01 0.00 0.00 0.00 0.00
0.03 0.05 0.04 0.01 0.00 0.00 0.00 0.00 0.00 0.00 0.00 0.00 0.00 0.00 0.00 0.00 0.00 0.00 0.00 0.00 0.00 0.00 0.00 0.01 0.01 0.02 0.03 0.04 0.05 0.05 0.05 0.05 0.04 0.04 0.04 0.03 0.03 0.03 0.02 0.02 0.01 0.01 0.01 0.01 0.01 0.00 0.00 0.00 0.00
0.03 0.04 0.03 0.01 0.00 0.00 0.00 0.00 0.00 0.00 0.00 0.00 0.00 0.00 0.00 0.00 0.00 0.00 0.00 0.00 0.00 0.00 0.00 0.01 0.02 0.03 0.04 0.05 0.06 0.07 0.07 0.07 0.06 0.06 0.06 0.05 0.04 0.03 0.02 0.01 0.01 0.01 0.01 0.01 0.01 0.00 0.00 0.00 0.00
0.03 0.03 0.02 0.01 0.00 0.00 0.00 0.00 0.00 0.00 0.00 0.00 0.00 0.00 0.00 0.00 0.00 0.00 0.00 0.00 0.00 0.00 0.01 0.01 0.03 0.04 0.05 0.06 0.08 0.10 0.10 0.09 0.09 0.08 0.08 0.07 0.05 0.04 0.03 0.02 0.01 0.01 0.01 0.01 0.01 0.01 0.00 0.00 0.00
0.02 0.03 0.02 0.01 0.01 0.00 0.00 0.00 0.00 0.00 0.00 0.00 0.00 0.00 0.00 0.00 0.00 0.00 0.00 0.00 0.00 0.01 0.02 0.02 0.03 0.05 0.07 0.08 0.09 0.12 0.13 0.12 0.12 0.11 0.09 0.07 0.07 0.06 0.05 0.02 0.02 0.01 0.01 0.01 0.01 0.01 0.01 0.00 0.00
0.02 0.04 0.02 0.01 0.01 0.00 0.00 0.00 0.00 0.00 0.00 0.00 0.00 0.00 0.00 0.00 0.00 0.00 0.00 0.00 0.01 0.02 0.03 0.03 0.04 0.07 0.10 0.11 0.10 0.13 0.15 0.17 0.17 0.15 0.12 0.08 0.07 0.05 0.05 0.04 0.02 0.02 0.01 0.01 0.01 0.01 0.00 0.00 0.00
0.03 0.03 0.02 0.01 0.00 0.00 0.00 0.00 0.01 0.01 0.01 0.01 0.00 0.00 0.01 0.01 0.00 0.00 0.01 0.01 0.02 0.02 0.04 0.05 0.05 0.08 0.12 0.13 0.15 0.16 0.18 0.19 0.19 0.14 0.11 0.10 0.07 0.04 0.03 0.04 0.04 0.02 0.02 0.01 0.01 0.01 0.00 0.00 0.00
0.02 0.02 0.01 0.01 0.01 0.01 0.00 0.00 0.01 0.02 0.02 0.01 0.01 0.01 0.01 0.01 0.00 0.00 0.00 0.01 0.01 0.02 0.04 0.06 0.08 0.10 0.13 0.15 0.17 0.19 0.18 0.18 0.18 0.13 0.10 0.08 0.07 0.05 0.05 0.04 0.04 0.04 0.03 0.02 0.01 0.01 0.00 0.00 0.00
0.02 0.02 0.01 0.01 0.01 0.01 0.01 0.01 0.01 0.02 0.02 0.02 0.03 0.01 0.01 0.01 0.01 0.00 0.01 0.01 0.02 0.03 0.05 0.07 0.09 0.12 0.14 0.18 0.19 0.18 0.18 0.15 0.14 0.14 0.12 0.09 0.07 0.05 0.04 0.03 0.02 0.02 0.02 0.02 0.01 0.00 0.00 0.00 0.00
0.02 0.02 0.02 0.02 0.02 0.02 0.02 0.02 0.02 0.01 0.02 0.03 0.04 0.02 0.02 0.02 0.02 0.01 0.01 0.02 0.02 0.03 0.06 0.08 0.10 0.12 0.15 0.19 0.24 0.22 0.19 0.15 0.13 0.13 0.15 0.12 0.06 0.04 0.04 0.02 0.02 0.02 0.01 0.01 0.01 0.00 0.00 0.00 0.00
0.02 0.03 0.02 0.02 0.02 0.02 0.03 0.03 0.04 0.02 0.03 0.05 0.05 0.04 0.02 0.02 0.03 0.03 0.02 0.02 0.02 0.03 0.05 0.08 0.11 0.13 0.16 0.19 0.23 0.25 0.23 0.18 0.17 0.15 0.14 0.13 0.11 0.06 0.04 0.03 0.02 0.02 0.01 0.01 0.01 0.00 0.00 0.00 0.00
0.02 0.03 0.03 0.02 0.03 0.03 0.05 0.06 0.04 0.03 0.04 0.05 0.05 0.05 0.03 0.02 0.02 0.02 0.03 0.03 0.03 0.04 0.06 0.08 0.11 0.15 0.17 0.18 0.22 0.25 0.25 0.22 0.19 0.17 0.14 0.13 0.12 0.12 0.08 0.04 0.02 0.02 0.01 0.01 0.01 0.01 0.00 0.00 0.00
0.02 0.04 0.04 0.03 0.02 0.04 0.05 0.06 0.03 0.03 0.04 0.05 0.05 0.06 0.03 0.02 0.02 0.02 0.03 0.04 0.03 0.05 0.06 0.08 0.11 0.15 0.19 0.21 0.22 0.27 0.29 0.26 0.22 0.21 0.15 0.13 0.12 0.12 0.13 0.10 0.06 0.03 0.01 0.01 0.01 0.01 0.00 0.00 0.00
0.03 0.04 0.04 0.03 0.03 0.05 0.06 0.05 0.02 0.03 0.05 0.05 0.05 0.05 0.03 0.02 0.02 0.02 0.02 0.03 0.04 0.05 0.06 0.08 0.12 0.13 0.17 0.26 0.25 0.27 0.29 0.30 0.27 0.27 0.24 0.17 0.14 0.12 0.13 0.14 0.10 0.05 0.03 0.01 0.01 0.01 0.00 0.00 0.00
0.02 0.03 0.04 0.04 0.03 0.04 0.05 0.03 0.03 0.04 0.05 0.04 0.03 0.03 0.03 0.02 0.02 0.02 0.03 0.04 0.04 0.04 0.06 0.08 0.12 0.14 0.15 0.27 0.33 0.30 0.33 0.32 0.30 0.28 0.26 0.21 0.16 0.12 0.10 0.13 0.14 0.10 0.06 0.03 0.01 0.01 0.00 0.00 0.00
0.02 0.03 0.04 0.04 0.03 0.03 0.03 0.02 0.02 0.03 0.03 0.03 0.02 0.02 0.02 0.02 0.01 0.02 0.04 0.04 0.05 0.05 0.06 0.08 0.12 0.14 0.15 0.23 0.36 0.35 0.33 0.35 0.31 0.26 0.25 0.21 0.18 0.14 0.10 0.09 0.10 0.13 0.11 0.06 0.03 0.01 0.01 0.00 0.00
0.02 0.02 0.03 0.03 0.02 0.03 0.03 0.02 0.01 0.02 0.02 0.02 0.02 0.02 0.02 0.02 0.02 0.02 0.04 0.05 0.05 0.05 0.06 0.07 0.11 0.13 0.13 0.19 0.31 0.39 0.33 0.34 0.34 0.28 0.25 0.24 0.19 0.15 0.11 0.08 0.08 0.08 0.09 0.09 0.05 0.03 0.02 0.01 0.00
0.01 0.01 0.02 0.03 0.03 0.03 0.03 0.03 0.02 0.02 0.03 0.02 0.02 0.02 0.03 0.03 0.02 0.02 0.03 0.06 0.05 0.06 0.06 0.07 0.10 0.14 0.13 0.19 0.28 0.38 0.42 0.35 0.37 0.34 0.26 0.25 0.23 0.17 0.12 0.07 0.07 0.07 0.06 0.06 0.05 0.04 0.02 0.01 0.01
0.02 0.01 0.01 0.02 0.04 0.05 0.04 0.06 0.04 0.04 0.04 0.03 0.02 0.02 0.03 0.04 0.03 0.02 0.03 0.05 0.05 0.05 0.07 0.09 0.11 0.12 0.13 0.19 0.27 0.33 0.38 0.32 0.29 0.29 0.25 0.23 0.22 0.19 0.14 0.09 0.06 0.07 0.07 0.04 0.03 0.03 0.03 0.02 0.01
0.02 0.01 0.01 0.01 0.02 0.03 0.03 0.05 0.04 0.02 0.02 0.02 0.02 0.02 0.02 0.03 0.03 0.02 0.02 0.03 0.05 0.04 0.05 0.10 0.13 0.13 0.13 0.17 0.26 0.31 0.32 0.29 0.23 0.25 0.26 0.23 0.21 0.20 0.16 0.12 0.07 0.06 0.07 0.06 0.04 0.03 0.02 0.02 0.02
0.01 0.01 0.01 0.01 0.02 0.03 0.01 0.03 0.04 0.04 0.05 0.04 0.03 0.02 0.02 0.03 0.04 0.03 0.02 0.02 0.05 0.06 0.05 0.09 0.15 0.15 0.15 0.17 0.22 0.29 0.29 0.29 0.23 0.22 0.24 0.23 0.20 0.19 0.17 0.14 0.10 0.06 0.05 0.05 0.05 0.04 0.03 0.02 0.02
0.01 0.01 0.03 0.03 0.04 0.03 0.01 0.03 0.04 0.04 0.04 0.06 0.04 0.02 0.02 0.02 0.03 0.04 0.03 0.03 0.04 0.06 0.06 0.07 0.14 0.18 0.19 0.17 0.19 0.24 0.26 0.27 0.24 0.18 0.19 0.20 0.17 0.16 0.15 0.14 0.11 0.08 0.05 0.05 0.04 0.04 0.03 0.03 0.02
0.01 0.01 0.04 0.04 0.02 0.02 0.01 0.04 0.04 0.02 0.02 0.03 0.02 0.01 0.01 0.02 0.02 0.03 0.03 0.03 0.04 0.05 0.05 0.06 0.11 0.18 0.25 0.23 0.20 0.21 0.22 0.24 0.23 0.18 0.16 0.15 0.13 0.12 0.12 0.11 0.11 0.09 0.06 0.05 0.04 0.04 0.03 0.02 0.02
0.01 0.01 0.01 0.03 0.02 0.02 0.02 0.02 0.02 0.01 0.01 0.01 0.01 0.01 0.01 0.01 0.02 0.03 0.03 0.03 0.04 0.06 0.05 0.05 0.08 0.15 0.24 0.29 0.24 0.21 0.20 0.21 0.21 0.18 0.16 0.14 0.11 0.10 0.11 0.10 0.09 0.09 0.07 0.05 0.05 0.04 0.03 0.02 0.02
0.00 0.01 0.01 0.03 0.04 0.02 0.02 0.03 0.03 0.01 0.01 0.01 0.02 0.02 0.01 0.01 0.02 0.03 0.04 0.04 0.04 0.05 0.06 0.06 0.07 0.13 0.20 0.28 0.31 0.24 0.20 0.19 0.20 0.19 0.16 0.14 0.13 0.10 0.09 0.10 0.09 0.08 0.07 0.05 0.05 0.04 0.03 0.02 0.02
0.00 0.01 0.01 0.03 0.03 0.03 0.02 0.03 0.02 0.01 0.01 0.02 0.02 0.02 0.02 0.02 0.02 0.03 0.03 0.04 0.04 0.05 0.06 0.06 0.08 0.13 0.18 0.22 0.29 0.29 0.23 0.20 0.19 0.21 0.20 0.15 0.13 0.11 0.09 0.09 0.09 0.08 0.07 0.06 0.06 0.05 0.03 0.03 0.02
0.00 0.01 0.02 0.03 0.02 0.02 0.03 0.02 0.00 0.00 0.01 0.02 0.02 0.02 0.02 0.02 0.02 0.02 0.02 0.03 0.04 0.06 0.07 0.07 0.08 0.13 0.16 0.19 0.23 0.26 0.24 0.22 0.21 0.18 0.21 0.21 0.15 0.12 0.09 0.08 0.08 0.07 0.06 0.05 0.05 0.06 0.04 0.03 0.02
MSLP
1011.20 1011.36 1011.50 1011.49 1011.26 1010.76 1009.98 1009.01 1007.94 1006.93 1006.09 1005.51 1005.20 1005.12 1005.17 1005.23 1005.18 1004.96 1004.55 1004.00 1003.41 1002.89 1002.54 1002.43 1002.57 1002.93 1003.41 1003.92 1004.40 1004.78 1005.06 1005.28 1005.48 1005.72 1006.04 1006.46 1006.94 1007.47 1007.99 1008.48 1008.90 1009.28 1009.63 1009.98 1010.36 1010.77 1011.22 1011.67 1012.11
1011.36 1011.44 1011.43 1011.26 1010.84 1010.15 1009.22 1008.12 1006.99 1005.96 1005.14 1004.62 1004.39 1004.40 1004.56 1004.73 1004.80 1004.69 1004.39 1003.94 1003.43 1002.98 1002.66 1002.56 1002.69 1003.01 1003.45 1003.92 1004.37 1004.74 1005.03 1005.26 1005.49 1005.74 1006.06 1006.46 1006.92 1007.42 1007.91 1008.37 1008.79 1009.19 1009.58 1009.98 1010.41 1010.88 1011.36 1011.85 1012.29
1011.50 1011.45 1011.29 1010.94 1010.35 1009.53 1008.51 1007.38 1006.26 1005.28 1004.55 1004.11 1003.96 1004.05 1004.26 1004.48 1004.60 1004.55 1004.31 1003.93 1003.49 1003.08 1002.80 1002.70 1002.80 1003.07 1003.45 1003.87 1004.27 1004.62 1004.91 1005.16 1005.41 1005.68 1006.02 1006.42 1006.86 1007.33 1007.80 1008.25 1008.68 1009.10 1009.54 1010.00 1010.50 1011.03 1011.56 1012.06 1012.52
1011.62 1011.44 1011.13 1010.63 1009.93 1009.04 1008.02 1006.95 1005.93 1005.09 1004.48 1004.15 1004.07 1004.19 1004.41 1004.61 1004.71 1004.65 1004.43 1004.07 1003.66 1003.29 1003.02 1002.90 1002.95 1003.14 1003.43 1003.76 1004.09 1004.39 1004.67 1004.93 1005.21 1005.53 1005.90 1006.32 1006.77 1007.24 1007.71 1008.17 1008.62 1009.09 1009.58 1010.11 1010.67 1011.25 1011.82 1012.34 1012.78
1011.74 1011.44 1011.01 1010.42 1009.68 1008.81 1007.88 1006.96 1006.12 1005.45 1005.00 1004.78 1004.76 1004.86 1005.02 1005.15 1005.17 1005.04 1004.78 1004.42 1004.02 1003.65 1003.36 1003.20 1003.17 1003.26 1003.42 1003.62 1003.85 1004.08 1004.32 1004.59 1004.91 1005.28 1005.71 1006.18 1006.68 1007.18 1007.68 1008.17 1008.67 1009.18 1009.72 1010.31 1010.92 1011.54 1012.13 1012.65 1013.08
1011.86 1011.47 1010.97 1010.36 1009.66 1008.90 1008.13 1007.42 1006.81 1006.35 1006.06 1005.93 1005.92 1005.97 1006.02 1006.01 1005.90 1005.67 1005.34 1004.94 1004.53 1004.15 1003.84 1003.61 1003.49 1003.43 1003.44 1003.49 1003.57 1003.70 1003.89 1004.16 1004.51 1004.95 1005.46 1006.01 1006.59 1007.16 1007.72 1008.26 1008.81 1009.37 1009.96 1010.59 1011.23 1011.87 1012.45 1012.96 1013.36
1011.97 1011.54 1011.03 1010.46 1009.86 1009.27 1008.71 1008.24 1007.87 1007.61 1007.46 1007.38 1007.34 1007.29 1007.19 1007.02 1006.75 1006.40 1005.98 1005.55 1005.12 1004.73 1004.39 1004.10 1003.86 1003.67 1003.50 1003.38 1003.31 1003.32 1003.44 1003.69 1004.07 1004.58 1005.17 1005.83 1006.50 1007.16 1007.80 1008.41 1009.00 1009.61 1010.24 1010.88 1011.53 1012.16 1012.73 1013.20 1013.57
1012.07 1011.64 1011.16 1010.68 1010.23 1009.82 1009.48 1009.23 1009.06 1008.96 1008.89 1008.82 1008.71 1008.53 1008.27 1007.92 1007.50 1007.03 1006.56 1006.09 1005.66 1005.27 1004.91 1004.57 1004.24 1003.91 1003.59 1003.30 1003.08 1002.97 1003.01 1003.23 1003.63 1004.19 1004.88 1005.63 1006.40 1007.16 1007.88 1008.55 1009.20 1009.84 1010.48 1011.13 1011.76 1012.37 1012.91 1013.35 1013.68
1012.16 1011.76 1011.36 1010.99 1010.67 1010.42 1010.26 1010.17 1010.13 1010.11 1010.06 1009.94 1009.73 1009.42 1009.00 1008.50 1007.96 1007.42 1006.90 1006.44 1006.02 1005.66 1005.30 1004.94 1004.55 1004.12 1003.67 1003.24 1002.89 1002.67 1002.63 1002.81 1003.21 1003.81 1004.56 1005.40 1006.26 1007.11 1007.90 1008.64 1009.33 1009.99 1010.63 1011.27 1011.88 1012.46 1012.96 1013.37 1013.68
1012.27 1011.92 1011.60 1011.32 1011.10 1010.96 1010.88 1010.86 1010.85 1010.82 1010.73 1010.53 1010.21 1009.77 1009.23 1008.63 1008.02 1007.44 1006.92 1006.48 1006.12 1005.79 1005.47 1005.12 1004.71 1004.22 1003.70 1003.17 1002.72 1002.41 1002.30 1002.43 1002.82 1003.43 1004.22 1005.11 1006.04 1006.95 1007.82 1008.61 1009.34 1010.02 1010.66 1011.28 1011.87 1012.42 1012.90 1013.30 1013.60
1012.44 1012.15 1011.88 1011.65 1011.47 1011.33 1011.24 1011.17 1011.10 1010.98 1010.79 1010.48 1010.06 1009.54 1008.93 1008.29 1007.66 1007.09 1006.61 1006.21 1005.90 1005.63 1005.36 1005.04 1004.64 1004.16 1003.61 1003.05 1002.55 1002.18 1002.01 1002.09 1002.44 1003.03 1003.81 1004.72 1005.69 1006.66 1007.58 1008.42 1009.19 1009.90 1010.56 1011.17 1011.75 1012.28 1012.76 1013.16 1013.49
1012.71 1012.47 1012.23 1011.98 1011.74 1011.52 1011.30 1011.08 1010.85 1010.59 1010.26 1009.86 1009.37 1008.82 1008.21 1007.59 1006.99 1006.46 1006.02 1005.67 1005.39 1005.17 1004.94 1004.67 1004.32 1003.88 1003.36 1002.82 1002.32 1001.93 1001.72 1001.74 1002.03 1002.57 1003.31 1004.21 1005.20 1006.20 1007.17 1008.07 1008.90 1009.65 1010.33 1010.97 1011.56 1012.10 1012.59 1013.02 1013.39
1013.11 1012.91 1012.64 1012.32 1011.95 1011.54 1011.10 1010.66 1010.21 1009.76 1009.31 1008.84 1008.34 1007.81 1007.27 1006.72 1006.19 1005.70 1005.28 1004.94 1004.67 1004.45 1004.24 1004.01 1003.72 1003.36 1002.93 1002.46 1002.01 1001.63 1001.39 1001.36 1001.57 1002.03 1002.71 1003.56 1004.54 1005.57 1006.59 1007.57 1008.47 1009.28 1010.03 1010.70 1011.32 1011.90 1012.43 1012.92 1013.35
1013.67 1013.46 1013.14 1012.69 1012.11 1011.45 1010.74 1010.03 1009.35 1008.73 1008.17 1007.68 1007.23 1006.80 1006.37 1005.92 1005.46 1005.00 1004.56 1004.16 1003.82 1003.53 1003.30 1003.08 1002.86 1002.60 1002.29 1001.94 1001.58 1001.25 1001.01 1000.93 1001.04 1001.40 1001.98 1002.77 1003.73 1004.78 1005.86 1006.93 1007.93 1008.84 1009.66 1010.41 1011.09 1011.71 1012.30 1012.85 1013.35
1014.31 1014.09 1013.68 1013.07 1012.27 1011.34 1010.34 1009.36 1008.47 1007.71 1007.12 1006.66 1006.32 1006.03 1005.73 1005.39 1004.97 1004.48 1003.95 1003.42 1002.92 1002.50 1002.18 1001.94 1001.78 1001.63 1001.48 1001.28 1001.05 1000.79 1000.56 1000.43 1000.45 1000.69 1001.16 1001.87 1002.80 1003.87 1005.03 1006.19 1007.31 1008.34 1009.27 1010.10 1010.85 1011.54 1012.18 1012.79 1013.38
1014.98 1014.73 1014.22 1013.43 1012.42 1011.23 1009.99 1008.79 1007.74 1006.91 1006.33 1005.97 1005.77 1005.64 1005.49 1005.22 1004.80 1004.22 1003.51 1002.75 1002.03 1001.40 1000.94 1000.66 1000.53 1000.51 1000.52 1000.51 1000.42 1000.27 1000.07 999.89 999.82 999.93 1000.29 1000.91 1001.80 1002.89 1004.13 1005.41 1006.66 1007.82 1008.86 1009.78 1010.60 1011.34 1012.04 1012.71 1013.36
1015.56 1015.28 1014.67 1013.75 1012.55 1011.17 1009.74 1008.39 1007.25 1006.42 1005.91 1005.68 1005.64 1005.67 1005.63 1005.41 1004.92 1004.17 1003.22 1002.17 1001.15 1000.27 999.63 999.28 999.19 999.29 999.48 999.66 999.75 999.71 999.56 999.35 999.18 999.17 999.41 999.95 1000.80 1001.91 1003.22 1004.61 1006.00 1007.29 1008.44 1009.44 1010.31 1011.10 1011.83 1012.55 1013.26
1015.99 1015.66 1014.99 1013.97 1012.65 1011.15 1009.61 1008.20 1007.04 1006.25 1005.84 1005.76 1005.88 1006.04 1006.07 1005.82 1005.22 1004.25 1003.01 1001.62 1000.27 999.12 998.30 997.86 997.80 998.03 998.41 998.80 999.07 999.15 999.05 998.82 998.58 998.46 998.59 999.04 999.85 1000.98 1002.35 1003.85 1005.35 1006.76 1008.00 1009.07 1009.98 1010.78 1011.53 1012.27 1013.01
1016.20 1015.84 1015.14 1014.08 1012.71 1011.17 1009.60 1008.18 1007.07 1006.35 1006.05 1006.09 1006.33 1006.56 1006.61 1006.30 1005.53 1004.32 1002.77 1001.05 999.38 997.97 996.97 996.46 996.45 996.80 997.36 997.94 998.39 998.61 998.58 998.34 998.04 997.83 997.85 998.23 999.00 1000.15 1001.57 1003.16 1004.76 1006.26 1007.57 1008.68 1009.60 1010.40 1011.13 1011.86 1012.63
1016.22 1015.85 1015.15 1014.10 1012.75 1011.23 1009.70 1008.32 1007.26 1006.62 1006.40 1006.52 1006.81 1007.07 1007.07 1006.65 1005.71 1004.26 1002.43 1000.42 998.48 996.85 995.71 995.16 995.18 995.65 996.37 997.13 997.75 998.09 998.12 997.90 997.56 997.28 997.24 997.55 998.30 999.45 1000.92 1002.57 1004.24 1005.80 1007.16 1008.28 1009.20 1009.97 1010.67 1011.38 1012.14
1016.12 1015.76 1015.09 1014.10 1012.82 1011.37 1009.90 1008.58 1007.57 1006.97 1006.78 1006.90 1007.17 1007.38 1007.30 1006.76 1005.65 1004.00 1001.95 999.73 997.60 995.81 994.58 993.99 994.05 994.61 995.46 996.36 997.11 997.56 997.66 997.47 997.12 996.82 996.73 997.02 997.75 998.91 1000.41 1002.10 1003.82 1005.42 1006.80 1007.92 1008.81 1009.53 1010.19 1010.86 1011.59
1016.03 1015.70 1015.09 1014.18 1012.99 1011.62 1010.22 1008.95 1007.94 1007.32 1007.08 1007.13 1007.32 1007.42 1007.22 1006.55 1005.31 1003.53 1001.35 999.01 996.77 994.91 993.63 993.02 993.10 993.70 994.61 995.60 996.44 996.97 997.14 997.00 996.68 996.40 996.32 996.61 997.35 998.53 1000.04 1001.76 1003.51 1005.12 1006.50 1007.60 1008.46 1009.15 1009.75 1010.37 1011.07
1016.08 1015.79 1015.25 1014.43 1013.34 1012.05 1010.69 1009.42 1008.38 1007.67 1007.30 1007.20 1007.23 1007.18 1006.85 1006.08 1004.76 1002.92 1000.70 998.34 996.08 994.20 992.89 992.26 992.31 992.90 993.82 994.82 995.69 996.28 996.51 996.45 996.21 995.99 995.97 996.31 997.08 998.28 999.81 1001.54 1003.29 1004.90 1006.27 1007.35 1008.19 1008.84 1009.40 1009.98 1010.64
1016.35 1016.11 1015.65 1014.92 1013.91 1012.67 1011.33 1010.01 1008.87 1008.01 1007.45 1007.14 1006.96 1006.74 1006.28 1005.42 1004.07 1002.25 1000.08 997.77 995.56 993.70 992.38 991.70 991.69 992.20 993.04 993.99 994.84 995.45 995.75 995.78 995.65 995.55 995.65 996.08 996.91 998.15 999.69 1001.42 1003.15 1004.74 1006.09 1007.16 1007.98 1008.61 1009.15 1009.70 1010.33
1016.86 1016.67 1016.28 1015.63 1014.68 1013.47 1012.11 1010.72 1009.43 1008.37 1007.57 1007.02 1006.61 1006.20 1005.61 1004.69 1003.37 1001.62 999.56 997.36 995.24 993.42 992.08 991.33 991.18 991.54 992.24 993.07 993.86 994.47 994.84 994.99 995.02 995.09 995.34 995.90 996.82 998.10 999.65 1001.36 1003.05 1004.61 1005.94 1007.00 1007.82 1008.45 1008.99 1009.53 1010.13
1017.55 1017.41 1017.08 1016.48 1015.58 1014.38 1012.98 1011.49 1010.04 1008.77 1007.73 1006.92 1006.27 1005.67 1004.96 1004.01 1002.73 1001.09 999.17 997.11 995.09 993.31 991.93 991.07 990.75 990.91 991.40 992.08 992.77 993.37 993.81 994.11 994.34 994.61 995.06 995.77 996.79 998.12 999.66 1001.33 1002.97 1004.49 1005.78 1006.84 1007.66 1008.32 1008.88 1009.44 1010.03
1018.30 1018.19 1017.91 1017.35 1016.48 1015.29 1013.86 1012.27 1010.68 1009.21 1007.93 1006.88 1006.01 1005.23 1004.42 1003.45 1002.22 1000.69 998.92 997.00 995.07 993.32 991.89 990.89 990.36 990.28 990.55 991.04 991.63 992.22 992.74 993.20 993.65 994.16 994.82 995.70 996.82 998.18 999.71 1001.31 1002.89 1004.33 1005.59 1006.63 1007.48 1008.18 1008.79 1009.37 1009.98
1018.95 1018.87 1018.61 1018.09 1017.25 1016.08 1014.63 1012.99 1011.30 1009.67 1008.20 1006.95 1005.88 1004.94 1004.03 1003.03 1001.84 1000.42 998.77 996.97 995.13 993.39 991.89 990.74 990.00 989.68 989.72 990.03 990.52 991.10 991.72 992.36 993.03 993.78 994.66 995.70 996.92 998.29 999.78 1001.30 1002.78 1004.14 1005.35 1006.38 1007.25 1008.00 1008.67 1009.31 1009.94
1019.38 1019.29 1019.05 1018.56 1017.76 1016.62 1015.19 1013.56 1011.82 1010.10 1008.51 1007.11 1005.89 1004.81 1003.80 1002.76 1001.59 1000.24 998.68 996.97 995.19 993.46 991.89 990.61 989.69 989.15 988.99 989.14 989.55 990.15 990.87 991.68 992.57 993.54 994.62 995.80 997.08 998.46 999.88 1001.30 1002.66 1003.92 1005.07 1006.08 1006.98 1007.78 1008.52 1009.23 1009.91
1019.52 1019.41 1019.16 1018.69 1017.93 1016.87 1015.51 1013.93 1012.22 1010.49 1008.84 1007.33 1006.00 1004.81 1003.71 1002.61 1001.43 1000.11 998.61 996.97 995.24 993.51 991.91 990.52 989.46 988.76 988.44 988.48 988.83 989.45 990.27 991.24 992.32 993.48 994.71 996.00 997.33 998.67 1000.01 1001.31 1002.55 1003.71 1004.78 1005.77 1006.69 1007.55 1008.37 1009.15 1009.89
Thickness
5710 5715 5717 5710 5696 5693 5702 5725 5741 5748 5757 5769 5771 5768 5762 5761 5758 5751 5774 5792 5795 5794 5792 5786 5784 5782 5781 5780 5779 5777 5776 5774 5772 5771 5769 5767 5765 5764 5762 5761 5759 5758 5756 5755 5753 5750 5748 5746 5743
5704 5710 5706 5697 5685 5687 5707 5727 5733 5743 5756 5763 5763 5760 5756 5760 5771 5770 5774 5785 5789 5788 5785 5781 5778 5776 5775 5774 5773 5772 5771 5769 5768 5766 5764 5763 5761 5759 5758 5756 5755 5754 5752 5750 5748 5746 5744 5742 5739
5698 5702 5692 5687 5688 5696 5713 5734 5738 5746 5753 5752 5749 5752 5751 5755 5766 5767 5771 5780 5782 5781 5778 5775 5772 5770 5769 5769 5768 5767 5766 5764 5763 5761 5760 5758 5757 5755 5753 5752 5750 5749 5747 5745 5743 5742 5740 5737 5735
5691 5687 5684 5681 5691 5709 5716 5727 5732 5734 5739 5742 5738 5737 5749 5760 5762 5763 5768 5772 5772 5771 5771 5768 5765 5764 5763 5763 5762 5761 5760 5759 5758 5756 5755 5754 5752 5750 5748 5747 5745 5744 5742 5740 5738 5737 5735 5733 5731
5680 5674 5669 5675 5690 5704 5714 5721 5723 5719 5721 5726 5726 5723 5731 5750 5756 5758 5759 5761 5761 5762 5762 5760 5759 5758 5757 5757 5756 5755 5755 5754 5753 5751 5750 5749 5747 5745 5744 5742 5740 5739 5737 5735 5734 5732 5730 5729 5727
5665 5666 5662 5671 5687 5699 5705 5710 5709 5707 5709 5713 5712 5711 5720 5737 5741 5743 5746 5748 5751 5752 5753 5752 5751 5751 5751 5751 5750 5750 5749 5749 5748 5746 5745 5743 5742 5740 5738 5736 5735 5733 5732 5730 5729 5727 5725 5724 5722
5650 5651 5655 5666 5673 5681 5690 5695 5691 5689 5691 5696 5700 5696 5708 5720 5726 5730 5732 5734 5738 5741 5743 5742 5742 5742 5743 5744 5744 5744 5744 5743 5742 5741 5739 5738 5736 5734 5733 5731 5729 5728 5726 5725 5724 5722 5720 5719 5717
5643 5639 5646 5653 5656 5665 5675 5677 5677 5673 5675 5685 5686 5680 5686 5701 5710 5715 5717 5719 5723 5727 5730 5732 5733 5734 5735 5736 5737 5737 5737 5737 5736 5735 5733 5732 5730 5728 5727 5725 5724 5723 5721 5720 5719 5717 5715 5714 5712
5630 5620 5630 5640 5640 5647 5655 5653 5657 5660 5660 5665 5669 5670 5675 5685 5690 5693 5696 5700 5704 5710 5715 5720 5722 5725 5727 5728 5729 5730 5730 5730 5729 5728 5727 5725 5724 5722 5720 5720 5718 5717 5716 5714 5713 5711 5710 5709 5707
5614 5610 5624 5630 5628 5627 5630 5631 5632 5634 5635 5641 5648 5655 5659 5662 5666 5670 5675 5681 5686 5692 5700 5706 5711 5715 5718 5719 5721 5722 5723 5722 5722 5721 5720 5719 5718 5717 5715 5714 5713 5712 5710 5709 5707 5706 5704 5703 5702
5607 5605 5612 5613 5612 5609 5608 5610 5613 5610 5614 5620 5625 5632 5636 5640 5645 5650 5658 5665 5672 5679 5685 5693 5699 5704 5707 5710 5711 5713 5715 5715 5716 5716 5715 5714 5712 5711 5709 5707 5706 5705 5704 5703 5701 5700 5700 5699 5698
5594 5596 5596 5596 5595 5591 5589 5592 5593 5594 5600 5605 5608 5613 5617 5621 5627 5633 5641 5648 5655 5663 5671 5680 5686 5691 5696 5700 5703 5705 5706 5708 5709 5710 5711 5710 5708 5706 5705 5703 5702 5700 5699 5698 5697 5696 5696 5695 5694
5580 5582 5581 5580 5577 5575 5574 5576 5578 5583 5588 5590 5593 5596 5599 5604 5611 5618 5627 5634 5640 5647 5656 5665 5673 5679 5685 5689 5693 5695 5698 5701 5703 5705 5706 5706 5704 5702 5700 5699 5698 5696 5695 5693 5693 5693 5692 5691 5689
5570 5567 5565 5563 5562 5562 5560 5565 5564 5571 5574 5576 5577 5579 5585 5590 5596 5602 5609 5618 5626 5634 5643 5651 5659 5667 5673 5678 5682 5687 5689 5693 5696 5699 5701 5701 5700 5698 5696 5696 5694 5692 5691 5690 5689 5689 5687 5686 5685
5559 5554 5555 5558 5556 5554 5549 5552 5556 5561 5561 5562 5565 5567 5571 5576 5583 5589 5595 5603 5613 5621 5629 5637 5645 5654 5661 5667 5672 5677 5681 5685 5688 5692 5695 5696 5696 5694 5693 5691 5690 5688 5686 5685 5685 5684 5683 5681 5680
5550 5544 5541 5553 5550 5547 5535 5537 5551 5551 5549 5551 5554 5556 5559 5565 5572 5579 5585 5591 5600 5608 5616 5625 5633 5641 5648 5655 5661 5667 5672 5676 5681 5685 5688 5690 5691 5690 5689 5686 5685 5683 5682 5681 5680 5678 5676 5675 5674
5540 5527 5528 5536 5541 5536 5529 5531 5543 5543 5541 5543 5545 5547 5550 5554 5561 5568 5574 5580 5588 5596 5604 5613 5622 5629 5637 5644 5650 5657 5663 5667 5673 5678 5681 5684 5685 5685 5684 5682 5680 5679 5677 5676 5675 5673 5671 5669 5667
5520 5517 5519 5520 5528 5527 5523 5527 5534 5536 5535 5536 5538 5540 5541 5544 5550 5559 5565 5571 5579 5586 5594 5603 5611 5619 5626 5632 5638 5645 5651 5658 5664 5670 5673 5676 5678 5680 5679 5677 5676 5673 5672 5670 5669 5667 5666 5664 5662
5516 5510 5508 5517 5522 5518 5517 5520 5528 5530 5529 5528 5530 5531 5532 5536 5542 5549 5555 5563 5569 5576 5584 5592 5600 5609 5615 5621 5628 5634 5641 5649 5656 5663 5668 5670 5671 5673 5674 5672 5670 5668 5667 5666 5664 5662 5660 5657 5656
5512 5503 5505 5516 5519 5511 5513 5519 5526 5527 5524 5522 5522 5523 5525 5527 5533 5539 5546 5553 5559 5566 5574 5583 5591 5599 5607 5615 5621 5627 5634 5642 5649 5655 5659 5663 5665 5667 5668 5668 5666 5664 5662 5660 5659 5657 5654 5652 5651
5506 5500 5500 5499 5507 5510 5506 5513 5524 5525 5522 5518 5517 5517 5518 5520 5523 5529 5538 5545 5550 5557 5566 5576 5583 5589 5598 5606 5613 5619 5625 5631 5638 5645 5651 5656 5659 5661 5662 5663 5662 5660 5659 5657 5656 5654 5652 5648 5646
5497 5506 5501 5497 5487 5488 5494 5483 5510 5512 5512 5509 5507 5506 5508 5511 5515 5522 5529 5536 5542 5550 5559 5567 5574 5582 5590 5598 5604 5612 5617 5624 5634 5640 5645 5649 5652 5655 5656 5657 5657 5655 5655 5654 5653 5651 5649 5646 5642
5497 5501 5498 5496 5488 5482 5491 5477 5496 5505 5502 5500 5498 5498 5500 5504 5509 5514 5520 5527 5534 5542 5551 5559 5567 5574 5583 5591 5597 5605 5611 5619 5627 5633 5637 5641 5645 5648 5650 5651 5652 5651 5651 5650 5649 5647 5645 5643 5641
5497 5493 5495 5499 5489 5473 5490 5482 5485 5490 5492 5492 5493 5493 5494 5497 5502 5506 5513 5520 5527 5534 5542 5551 5558 5566 5576 5584 5592 5600 5607 5613 5619 5626 5630 5634 5638 5640 5644 5646 5647 5647 5647 5646 5645 5644 5641 5640 5638
5484 5466 5457 5458 5464 5474 5500 5489 5485 5492 5492 5488 5487 5487 5488 5490 5493 5498 5505 5512 5518 5526 5534 5541 5550 5559 5568 5578 5586 5595 5601 5607 5615 5622 5626 5630 5633 5635 5639 5641 5642 5643 5643 5642 5641 5640 5638 5636 5634
5470 5459 5436 5427 5441 5466 5484 5482 5484 5493 5492 5489 5486 5484 5484 5485 5486 5490 5497 5504 5511 5519 5526 5534 5542 5552 5561 5571 5580 5589 5597 5603 5610 5619 5623 5627 5631 5633 5634 5636 5637 5638 5638 5638 5637 5636 5634 5632 5631
5462 5455 5454 5437 5436 5441 5467 5482 5485 5488 5486 5485 5482 5479 5478 5479 5482 5486 5492 5499 5505 5512 5520 5527 5535 5545 5554 5564 5574 5583 5592 5599 5606 5614 5619 5624 5628 5630 5631 5632 5633 5633 5634 5634 5633 5632 5630 5629 5627
5465 5456 5440 5425 5418 5429 5456 5468 5464 5470 5473 5475 5473 5471 5471 5474 5477 5481 5487 5493 5499 5507 5515 5524 5531 5539 5549 5558 5568 5578 5588 5596 5603 5609 5615 5619 5624 5627 5628 5628 5629 5630 5630 5630 5629 5629 5627 5625 5623
5454 5445 5435 5424 5424 5417 5424 5450 5474 5465 5466 5465 5465 5465 5465 5467 5470 5475 5482 5488 5495 5502 5510 5519 5527 5535 5544 5553 5563 5572 5583 5591 5598 5605 5612 5616 5620 5623 5625 5625 5626 5626 5626 5626 5625 5625 5624 5622 5620
5454 5441 5427 5408 5408 5415 5414 5439 5470 5464 5463 5461 5460 5461 5462 5464 5466 5470 5477 5483 5488 5495 5503 5511 5521 5529 5539 5548 5557 5566 5576 5585 5592 5601 5607 5611 5615 5618 5621 5622 5622 5623 5623 5623 5623 5622 5622 5620 5617